Robusta 1B
1 42792U 17036AD 18067.70598360 .00001151 00000-0 53777-4 0 9992
2 42792 97.4140 129.1771 0013056 73.1838 287.0829 15.21734713 39242
D-SAT
1 42794U 17036AF 18067.56766402 .00000349 00000-0 36337-4 0 9993
2 42794 097.6057 125.9578 0125767 256.8431 101.8729 14.90793335038739
BIRD-J
1 42820U 98067MU 18067.43973241 .00013783 00000-0 15149-3 0 9996
2 42820 051.6359 151.9278 0002281 126.1800 233.9405 15.63495462038092
BIRD-G
1 42821U 98067MV 18067.59272415 .00013713 00000-0 15259-3 0 9994
2 42821 051.6358 151.4498 0002245 131.5998 228.5189 15.63183234038099
BIRD-M
1 42822U 98067MW 18067.58617889 .00014014 00000-0 15504-3 0 9990
2 42822 051.6360 151.4085 0002168 133.9373 226.1800 15.63310630038098
BIRD-B
1 42823U 98067MX 18067.58675345 .00014482 00000-0 15968-3 0 9995
2 42823 051.6367 151.4235 0004557 166.9973 193.1139 15.63360006038099
BIRD-N
1 42824U 98067MY 18067.66435337 .00014309 00000-0 15863-3 0 9992
2 42824 51.6371 151.2019 0004441 167.7213 192.3890 15.63232397 38075
TechnoSat
1 42829U 17042E 18067.48324772 .00000251 00000-0 30977-4 0 9996
2 42829 097.6048 333.5842 0014420 168.6031 191.5517 14.90776402035327
Mayak
1 42830U 17042F 18067.78645485 .00000460 00000-0 51766-4 0 9999
2 42830 97.6058 333.9699 0014523 164.8711 195.2945 14.91142546 35379
OBJECT MZ
1 42910U 98067MZ 18067.48100393 .00010018 00000-0 12214-3 0 9999
2 42910 051.6356 154.4412 0005635 191.3550 168.7317 15.61162101031638
OBJECT NA
1 42911U 98067NA 18067.83409374 .00012001 00000-0 14203-3 0 9994
2 42911 51.6365 152.3282 0005091 187.5164 172.5754 15.61718168 31677
OBJECT NB
1 42912U 98067NB 18067.80584836 .00011220 00000-0 13523-3 0 9995
2 42912 51.6367 152.8546 0004552 202.1463 157.9335 15.61322067 31687
OBJECT NC
1 42913U 98067NC 18067.61109088 .00023149 00000-0 23218-3 0 9992
2 42913 051.6350 150.8064 0002749 222.3584 137.7199 15.65399946031696
OBJECT ND
1 42914U 98067ND 18067.57627635 .00011492 00000-0 14042-3 0 9994
2 42914 051.6368 154.3544 0004539 193.3423 166.7451 15.60931640031619
QIKCOM-1
1 42983U 98067NF 18067.76764071 .00002774 00000-0 46841-4 0 9993
2 42983 51.6422 158.4832 0004359 171.9943 267.2729 15.55504232 20586
AO-91
1 43017U 17073E 18067.33938170 .00000345 00000-0 33293-4 0 9995
2 43017 097.7015 002.7234 0258954 239.7451 117.7900 14.77931384016210
EcAMSat
1 43019U 98067NG 18067.67740027 .00004381 00000-0 68819-4 0 9994
2 43019 51.6396 158.7994 0005082 153.7277 206.3973 15.55942809102897
PICSAT
1 43132U 18004X 18067.22409295 .00001177 00000-0 54111-4 0 9993
2 43132 097.5467 129.5846 0011752 092.5224 267.7357 15.22340847008357
AO-92
1 43137U 18004AC 18067.21896123 .00000914 00000-0 42562-4 0 9992
2 43137 097.5465 129.5901 0011259 094.0719 266.1804 15.22468590008345
TianYi 2
1 43155U 18008A 18067.67690787 .00000756 00000-0 49760-4 0 9995
2 43155 97.5327 143.8300 0019424 127.5877 24.9313 15.10376700 7312
2018-008C
1 43157U 18008C 18067.70339244 .00001014 00000-0 66951-4 0 9998
2 43157 97.5386 143.8366 0016961 117.4226 33.9055 15.09542217 7319
2018-008D
1 43158U 18008D 18067.76957185 .00000955 00000-0 63303-4 0 9996
2 43158 97.5333 143.8632 0015128 119.8277 31.6973 15.09548669 7304
FMN 1
1 43192U 18015A 18067.81509309 .00002099 00000-0 93612-4 0 9996
2 43192 97.3404 198.9044 0018227 131.3215 228.9590 15.22350617 5247
Shaonian Xing
1 43199U 18015H 18067.79244233 .00001681 00000-0 73413-4 0 9995
2 43199 97.3177 198.8349 0018438 144.9359 215.3094 15.23334092 5251
